AH6412 DAOO-DAAJ

Flight info

Callsign AH6412
Flight time N/A
Altitude 37000
Route SID52 BAY UA604 MNA UB730 DJA
Aircraft B738/M-SDE2E3FGHIRWXY/LB1

Departure

Time 2026-04-28 18:32
Airport Oran Es-Sénia (Ahmed Ben Bella) International Airport (DAOO)

Arrival

Time N/A
Airport Tiska Djanet Airport (DAAJ)
Time Latitude Longitude Altitude Speed Heading
2026-04-28 18:30 35.62798 -0.60906 303 ft 0 kts 247°
2026-04-28 18:32 35.62778 -0.60964 304 ft 36 kts 247°
2026-04-28 18:32 35.62565 -0.61597 305 ft 122 kts 246°
2026-04-28 18:32 35.62185 -0.62825 570 ft 171 kts 251°
2026-04-28 18:32 35.61655 -0.64304 1087 ft 206 kts 256°
2026-04-28 18:33 35.61108 -0.66099 1434 ft 245 kts 236°
2026-04-28 18:33 35.59940 -0.67813 1866 ft 280 kts 227°
2026-04-28 18:33 35.58641 -0.69618 2329 ft 272 kts 227°
2026-04-28 18:33 35.57483 -0.71322 3018 ft 254 kts 229°
2026-04-28 18:34 35.56392 -0.73007 3755 ft 252 kts 230°
2026-04-28 18:34 35.55323 -0.74697 4491 ft 250 kts 231°
2026-04-28 18:34 35.54262 -0.76390 4967 ft 249 kts 231°
2026-04-28 18:34 35.53219 -0.78062 5449 ft 244 kts 232°
2026-04-28 18:35 35.52442 -0.79899 5906 ft 245 kts 258°
2026-04-28 18:35 35.52528 -0.81958 6412 ft 244 kts 288°
2026-04-28 18:35 35.53451 -0.83685 6887 ft 247 kts 318°
2026-04-28 18:35 35.54986 -0.84629 7375 ft 252 kts 348°
2026-04-28 18:36 35.56724 -0.84479 7853 ft 262 kts 19°
2026-04-28 18:36 35.58185 -0.83144 8607 ft 263 kts 49°
2026-04-28 18:36 35.59299 -0.81377 9437 ft 264 kts 58°
2026-04-28 18:36 35.59898 -0.79167 9783 ft 283 kts 83°
2026-04-28 18:37 35.60143 -0.76699 10161 ft 300 kts 83°
2026-04-28 18:37 35.60393 -0.74084 10518 ft 315 kts 83°
2026-04-28 18:37 35.60660 -0.71381 10855 ft 319 kts 83°
2026-04-28 18:37 35.60936 -0.68685 11182 ft 317 kts 83°
2026-04-28 18:38 35.61228 -0.66016 11510 ft 315 kts 79°
2026-04-28 18:38 35.61883 -0.63442 11856 ft 318 kts 67°
2026-04-28 18:38 35.62744 -0.60925 12213 ft 320 kts 66°
2026-04-28 18:38 35.63618 -0.58401 12564 ft 322 kts 66°
2026-04-28 18:39 35.64496 -0.55850 12921 ft 324 kts 66°
2026-04-28 18:39 35.65357 -0.53324 13277 ft 325 kts 66°
2026-04-28 18:39 35.66232 -0.50737 13524 ft 334 kts 67°
2026-04-28 18:39 35.67151 -0.48012 13714 ft 355 kts 67°
2026-04-28 18:40 35.68120 -0.45127 13881 ft 375 kts 67°
2026-04-28 18:40 35.69137 -0.42090 14064 ft 392 kts 67°
2026-04-28 18:40 35.70174 -0.38961 14552 ft 398 kts 69°
2026-04-28 18:40 35.70891 -0.35647 15026 ft 404 kts 81°
2026-04-28 18:41 35.71121 -0.32186 15513 ft 409 kts 91°
2026-04-28 18:41 35.70868 -0.28683 16009 ft 412 kts 98°
2026-04-28 18:41 35.70461 -0.25181 16515 ft 416 kts 99°
2026-04-28 18:41 35.70026 -0.21655 17169 ft 415 kts 99°
2026-04-28 18:42 35.69594 -0.18116 17576 ft 423 kts 99°
2026-04-28 18:42 35.69163 -0.14492 17850 ft 432 kts 99°
2026-04-28 18:42 35.68739 -0.10819 18118 ft 434 kts 99°
2026-04-28 18:42 35.68322 -0.07148 18343 ft 433 kts 99°
2026-04-28 18:43 35.67907 -0.03476 18571 ft 434 kts 99°
2026-04-28 18:43 35.67492 0.00202 18945 ft 434 kts 100°
2026-04-28 18:43 35.67077 0.03872 19186 ft 434 kts 100°
2026-04-28 18:43 35.66659 0.07544 19422 ft 434 kts 100°
2026-04-28 18:44 35.66238 0.11223 19664 ft 435 kts 100°
2026-04-28 18:44 35.65035 0.18433 20111 ft 432 kts 118°
2026-04-28 18:44 35.63377 0.21464 20377 ft 426 kts 136°
2026-04-28 18:45 35.61133 0.23805 20634 ft 422 kts 151°
2026-04-28 18:45 35.58492 0.25332 20897 ft 420 kts 161°
2026-04-28 18:45 35.55743 0.26577 21154 ft 422 kts 163°
2026-04-28 18:45 35.52972 0.27782 21415 ft 424 kts 163°
2026-04-28 18:46 35.50178 0.28990 21679 ft 426 kts 163°
2026-04-28 18:46 35.47378 0.30210 21939 ft 428 kts 163°
2026-04-28 18:46 35.44574 0.31445 22204 ft 429 kts 163°
2026-04-28 18:46 35.41754 0.32699 22465 ft 431 kts 163°
2026-04-28 18:47 35.38930 0.33962 22633 ft 434 kts 163°
2026-04-28 18:47 35.36080 0.35241 22806 ft 436 kts 163°
2026-04-28 18:47 35.33228 0.36522 22971 ft 438 kts 163°
2026-04-28 18:47 35.30366 0.37808 23132 ft 439 kts 163°
2026-04-28 18:48 35.27489 0.39100 23293 ft 439 kts 163°
2026-04-28 18:48 35.24620 0.40388 23450 ft 440 kts 163°
2026-04-28 18:48 35.21745 0.41677 23595 ft 440 kts 163°
2026-04-28 18:48 35.18911 0.42947 23719 ft 440 kts 163°
2026-04-28 18:49 35.16037 0.44232 23855 ft 440 kts 163°
2026-04-28 18:49 35.15064 0.44668 23900 ft 440 kts 163°
2026-04-28 18:49 35.10288 0.46802 24123 ft 440 kts 163°
2026-04-28 18:49 35.07404 0.48089 24264 ft 440 kts 163°
2026-04-28 18:50 35.04525 0.49373 24395 ft 440 kts 163°
2026-04-28 18:50 35.01647 0.50655 24529 ft 441 kts 163°
2026-04-28 18:50 34.98763 0.51940 24666 ft 442 kts 163°
2026-04-28 18:50 34.95877 0.53223 24816 ft 443 kts 163°
2026-04-28 18:51 34.92977 0.54513 24956 ft 444 kts 163°
2026-04-28 18:51 34.90068 0.55805 25103 ft 446 kts 163°
2026-04-28 18:51 34.87149 0.57101 25242 ft 447 kts 163°
2026-04-28 18:51 34.84225 0.58398 25393 ft 448 kts 163°
2026-04-28 18:52 34.81284 0.59702 25538 ft 450 kts 163°
2026-04-28 18:52 34.78334 0.61009 25733 ft 450 kts 163°
2026-04-28 18:52 34.75392 0.62312 25983 ft 450 kts 163°
2026-04-28 18:52 34.72454 0.63612 26326 ft 448 kts 163°
2026-04-28 18:53 34.69539 0.64902 26812 ft 445 kts 163°
2026-04-28 18:53 34.66615 0.66193 27044 ft 449 kts 164°
2026-04-28 18:53 34.63676 0.67489 27330 ft 450 kts 164°
2026-04-28 18:53 34.60743 0.68782 27861 ft 446 kts 164°
2026-04-28 18:54 34.57876 0.70047 28369 ft 443 kts 164°
2026-04-28 18:54 34.54989 0.71320 28899 ft 439 kts 164°
2026-04-28 18:54 34.52127 0.72580 29441 ft 436 kts 164°
2026-04-28 18:54 34.49283 0.73832 29973 ft 432 kts 165°
2026-04-28 18:55 34.46442 0.75078 30105 ft 438 kts 165°
2026-04-28 18:55 34.44499 0.75929 30219 ft 440 kts 165°